Hauptseite
METAR-TAF:

METAR-TAF

Flughäfen :

Militärflugplatz Emmen

Emmen, Schweiz

Breite: 47-05-32N, Länge: 8-18-16E, Höhe: 426 m

Beobachtung

Neuester Wetterbericht von vor 32 Minuten, um 05:20 UTC
Windstille
Temperatur 14°C
Luftfeuchtigkeit 94%
Luftdruck 1027 hPa
Sichtweite 10 km oder mehr
Leicht bewölkt in der Höhe von 1200 ft
Durchbrochene Bewölkung in der Höhe von 1900 ft
Geschlossene Wolkendecke in der Höhe von 2200 ft

METAR: LSME 070520Z 00000KT 9999 FEW012 BKN019 OVC022 14/13 Q1027 RMK WHT

Zeit: 07:52 (05:52 UTC)


TAF: fehlend

Wetterbeobachtungen und Prognosen von mehr als 4000 Flughäfen (METAR und TAF Bericht).

Die verfügbaren Stationen werden durch gelbe und rote Markierungen auf der Karte dargestellt.

Führen Sie die Maus auf sie, um den Namen der Station zu sehen.

Darauf klicken, um die Beobachtung von Wetterbeobachtungen und Prognosen zu sehen.

Um die Karte zu ändern : klicken Sie auf den grünen Tasten mit einem schwarzen Kreuz Zum Vergrößern, auf den grünen Button mit einem Gedankenstrich zu verkleinern, oder auf die grünen Pfeile für benachbarte Karten.


METAR-TAF: